Location: Fort Worth, Tx
(32.7431°N, 97.3695°W)
Time: 12:25:46
(UTC-05:00)

SR - All Passes

Search period start: 22 February 2024 00:00
Search period end: 03 March 2024 00:00
Orbit: 573 x 868 km, 66.7° (Epoch: 21 February)

Date Brightness Start Highest point End Pass type
(mag) Time Alt. Az. Time Alt. Az. Time Alt. Az.
22 Feb - 01:31:22 10° NNE 01:34:11 15° NE 01:36:53 10° E night (unlit)
22 Feb - 03:11:47 10° NW 03:16:30 52° WSW 03:20:49 10° S night (unlit)
22 Feb - 15:53:25 10° SSE 15:58:18 28° ESE 16:03:11 10° NE daylight
22 Feb - 17:34:41 10° SW 17:40:04 37° WNW 17:45:24 10° N daylight
23 Feb - 02:19:53 10° NNW 02:24:44 61° ENE 02:29:10 10° SE night (unlit)
23 Feb - 15:04:32 10° SE 15:06:50 12° ESE 15:09:07 10° E daylight
23 Feb - 16:42:15 10° SSW 16:48:06 78° WNW 16:53:54 10° NNE daylight
23 Feb - 18:29:03 10° WNW 18:30:52 11° NW 18:32:41 10° NNW daylight
24 Feb - 01:28:35 10° N 01:32:42 26° NE 01:36:31 10° ESE night (unlit)
24 Feb - 03:10:31 10° NW 03:14:27 26° WSW 03:18:09 10° SSW night (unlit)
24 Feb - 15:50:44 10° S 15:56:20 50° ESE 16:01:55 10° NE daylight
24 Feb - 17:33:59 10° WSW 17:38:30 23° NW 17:42:58 10° N daylight
25 Feb - 00:38:26 10° NNE 00:40:22 12° NE 00:42:15 10° ENE night (unlit)
25 Feb - 02:18:04 10° NNW 02:22:53 68° WSW 02:27:17 10° SSE night (unlit)
25 Feb - 15:00:16 10° SSE 15:04:44 23° ESE 15:09:11 10° NE daylight
25 Feb - 16:40:48 10° SW 16:46:23 45° WNW 16:51:53 10° NNE daylight
26 Feb - 01:26:19 10° NNW 01:31:02 47° ENE 01:35:22 10° SE night (unlit)
26 Feb - 03:10:14 10° WNW 03:12:18 13° WSW 03:14:18 10° SW night (unlit)
26 Feb - 15:48:36 10° SSW 15:54:27 87° ESE 16:00:16 10° NNE daylight
26 Feb - 17:34:12 10° W 17:37:04 14° NW 17:39:54 10° NNW daylight
27 Feb - 00:35:13 10° N 00:38:55 21° NE 00:42:24 10° ESE night (unlit)
27 Feb - 02:16:37 10° NW 02:20:52 33° WSW 02:24:50 10° S night (unlit)
27 Feb - 14:57:19 10° S 15:02:44 41° ESE 15:08:06 10° NE daylight
27 Feb - 16:39:52 10° WSW 16:44:44 27° NW 16:49:34 10° N daylight
28 Feb - 01:24:23 10° NNW 01:29:14 87° WSW 01:33:39 10° SSE night (unlit)
28 Feb - 14:07:15 10° SSE 14:11:10 19° ESE 14:15:04 10° ENE daylight
28 Feb - 15:46:58 10° SW 15:52:41 54° WNW 15:58:19 10° NNE daylight
29 Feb - 00:32:47 10° N 00:37:18 37° ENE 00:41:28 10° SE night (unlit)
29 Feb - 02:15:49 10° WNW 02:18:43 17° WSW 02:21:31 10° SW night (unlit)
29 Feb - 14:54:59 10° SSW 15:00:48 72° ESE 15:06:34 10° NNE daylight
29 Feb - 16:39:39 10° W 16:43:14 16° NW 16:46:47 10° NNW daylight
29 Feb - 23:41:55 10° N 23:45:06 17° NE 23:48:07 10° E night (unlit)
01 Mar - 01:22:46 10° NW 01:27:14 42° WSW 01:31:23 10° S night (unlit)
01 Mar - 14:03:58 10° S 14:09:07 33° ESE 14:14:13 10° NE daylight
01 Mar - 15:45:49 10° WSW 15:51:00 32° WNW 15:56:05 10° N daylight
02 Mar - 00:30:43 10° NNW 00:35:31 74° ENE 00:39:56 10° SSE night (unlit)
02 Mar - 13:14:25 10° SE 13:17:36 15° ESE 13:20:45 10° ENE daylight
02 Mar - 14:53:10 10° SW 14:58:59 66° WNW 15:04:42 10° NNE daylight
02 Mar - 23:39:16 10° N 23:43:31 30° ENE 23:47:28 10° ESE night (unlit)
